Wind From: 11-12-2017 04:25 Until: 16:00 warning for: Wind Level: Orange info button

Power and phone distribution networks may be disrupted for relatively long periods., Roofs and chimneys can be damaged. , Tree branches may break. , Vehicles can be deported. , Traffic may be disrupted, particularly on secondary roads in forest areas. Limit your trips. , Limit your speed in highway driving, especially if you drive a vehicle or hitch sensitive to wind. , Do not go for walks in forests or along the coast., In town, be vigilant against possible falling objects., Do not work on roofs and do not touch any electrical line fallen on the ground., Store or secure sensitive objects to wind or likely to be damaged., Always install power generators outside buildings. 


Meteo18 Weather Cam more information Meteo18 Weather Cam


Thunder radar more information blitzortung!


Rain radar more information rain snow radar


Visit our other weather sites:

Template documentation
and downloads

And another site



Weather Underground History page Text

Daily Summary for February 23, 2017 Units:  English    Metric   Both
« Previous Day
Next Day »
Daily Weekly Monthly Yearly Custom
  High: Low: Average:
Temperature: 48.6 °F 44.1 °F 46.2 °F
Dew Point: 46.6 °F 39.9 °F 43 °F
Humidity: 95 % 80 % 89 %
Wind Speed: 23 mph 1 mph 8.1 mph
Wind Gust: 30 mph - -
Wind:- - WSW
Pressure: 30.1 in 29.8 in -
Precipitation: 0.17 in    
Historical Graphs
 
 
Tabular Data for February 23, 2017
Time Temperature Dew Point Pressure Wind Wind Speed Wind Gust Humidity Rainfall Rate (Hourly)
00:02 47.1 °F 43.7 °F 30.1 in WSW 3 mph 13 mph 88 % 0 in
00:12 46.9 °F 43.3 °F 30.1 in WSW 12 mph 13 mph 87 % 0 in
00:17 46.9 °F 43.3 °F 30.1 in SSW 1 mph 10 mph 87 % 0 in
00:22 46.9 °F 43.5 °F 30.1 in SW 7 mph 12 mph 88 % 0 in
00:27 46.9 °F 43.5 °F 30.1 in SSW 3 mph 12 mph 88 % 0 in
00:32 46.8 °F 43.3 °F 30.1 in SSW 2 mph 10 mph 88 % 0 in
00:37 46.8 °F 43.3 °F 30.1 in West 5 mph 10 mph 88 % 0 in
00:42 46.8 °F 43.2 °F 30.1 in SSW 2 mph 12 mph 87 % 0 in
00:47 46.8 °F 43.2 °F 30.1 in WSW 8 mph 12 mph 87 % 0 in
00:52 46.9 °F 43.3 °F 30.1 in South 4 mph 12 mph 87 % 0 in
00:57 46.8 °F 43.2 °F 30.1 in SSW 3 mph 13 mph 87 % 0 in
01:02 46.8 °F 43.3 °F 30.1 in SSW 1 mph 13 mph 88 % 0 in
01:07 46.6 °F 43.2 °F 30.1 in SW 4 mph 6 mph 88 % 0 in
01:12 46.6 °F 43.2 °F 30.1 in SW 6 mph 6 mph 88 % 0 in
01:17 46.6 °F 43.2 °F 30.1 in South 2 mph 11 mph 88 % 0 in
01:22 46.6 °F 43.2 °F 30.1 in SW 4 mph 11 mph 88 % 0 in
01:32 46.6 °F 43 °F 30.1 in WSW 3 mph 10 mph 87 % 0 in
01:42 46.6 °F 43 °F 30.1 in SSE 4 mph 10 mph 87 % 0 in
01:47 46.6 °F 43.2 °F 30 in SW 6 mph 9 mph 88 % 0 in
01:52 46.6 °F 43.2 °F 30 in South 2 mph 9 mph 88 % 0 in
01:57 46.4 °F 43 °F 30 in SW 5 mph 9 mph 88 % 0 in
02:02 46.2 °F 42.8 °F 30 in SW 5 mph 9 mph 88 % 0 in
02:07 46.2 °F 42.8 °F 30 in SW 8 mph 9 mph 88 % 0 in
02:12 46.2 °F 42.6 °F 30 in SW 3 mph 9 mph 87 % 0 in
02:17 46.2 °F 42.8 °F 30 in SE 7 mph 13 mph 88 % 0 in
02:22 46 °F 42.6 °F 30 in WSW 4 mph 13 mph 88 % 0 in
02:27 46 °F 42.6 °F 30 in West 8 mph 13 mph 88 % 0 in
02:32 46 °F 42.4 °F 30 in WSW 7 mph 13 mph 87 % 0 in
02:37 45.9 °F 42.4 °F 30 in SW 3 mph 11 mph 88 % 0 in
02:42 45.9 °F 42.4 °F 30 in WSW 4 mph 11 mph 88 % 0 in
02:47 45.9 °F 42.4 °F 30 in SW 4 mph 9 mph 88 % 0 in
02:52 45.7 °F 42.6 °F 30 in SSW 4 mph 9 mph 89 % 0 in
02:57 45.7 °F 42.6 °F 30 in SW 3 mph 9 mph 89 % 0 in
03:02 45.5 °F 42.4 °F 30 in West 6 mph 9 mph 89 % 0 in
03:07 45.5 °F 42.4 °F 30 in SW 4 mph 7 mph 89 % 0 in
03:12 45.3 °F 42.3 °F 30 in SSW 4 mph 7 mph 89 % 0 in
03:17 45.1 °F 42.4 °F 30 in SSW 4 mph 8 mph 90 % 0 in
03:22 45.1 °F 42.4 °F 30 in SW 6 mph 8 mph 90 % 0 in
03:27 45 °F 42.3 °F 30 in SSW 7 mph 9 mph 90 % 0 in
03:32 45 °F 42.3 °F 30 in SSW 4 mph 9 mph 90 % 0 in
03:42 44.8 °F 42.1 °F 30 in SSW 5 mph 10 mph 90 % 0 in
03:52 44.8 °F 42.1 °F 30 in SSW 4 mph 11 mph 90 % 0 in
03:57 44.8 °F 42.1 °F 30 in SSW 7 mph 11 mph 90 % 0 in
04:02 44.6 °F 42.1 °F 30 in SW 7 mph 11 mph 91 % 0 in
04:07 44.6 °F 42.1 °F 30 in SW 7 mph 11 mph 91 % 0 in
04:12 44.6 °F 42.1 °F 30 in South 4 mph 11 mph 91 % 0 in
04:17 44.6 °F 41.9 °F 30 in SSW 5 mph 11 mph 90 % 0 in
04:22 44.6 °F 41.9 °F 30 in SSW 6 mph 11 mph 90 % 0 in
04:32 44.8 °F 41.7 °F 30 in SSW 4 mph 11 mph 89 % 0 in
04:37 44.8 °F 41.7 °F 30 in WSW 7 mph 13 mph 89 % 0 in
04:42 44.8 °F 41.7 °F 30 in SW 9 mph 13 mph 89 % 0 in
04:47 44.6 °F 41.5 °F 30 in WSW 8 mph 14 mph 89 % 0 in
04:52 44.4 °F 41.4 °F 30 in SW 8 mph 14 mph 89 % 0 in
05:02 44.4 °F 41.7 °F 30 in SSW 10 mph 14 mph 90 % 0 in
05:07 44.4 °F 41.7 °F 30 in SW 10 mph 14 mph 90 % 0 in
05:12 44.2 °F 41.5 °F 30 in SSW 6 mph 14 mph 90 % 0 in
05:17 44.2 °F 41.5 °F 30 in SW 10 mph 16 mph 90 % 0 in
05:22 44.2 °F 41.5 °F 30 in SW 5 mph 16 mph 90 % 0 in
05:32 44.2 °F 41.5 °F 29.9 in SW 8 mph 12 mph 90 % 0 in
05:42 44.2 °F 41.5 °F 29.9 in SW 10 mph 18 mph 90 % 0 in
05:52 44.2 °F 41.5 °F 29.9 in SSW 5 mph 18 mph 90 % 0 in
06:02 44.2 °F 41.5 °F 29.9 in SW 8 mph 15 mph 90 % 0 in
06:12 44.2 °F 41.5 °F 29.9 in SW 10 mph 12 mph 90 % 0 in
06:17 44.2 °F 41.5 °F 29.9 in WSW 5 mph 12 mph 90 % 0 in
06:22 44.2 °F 41.5 °F 29.9 in SW 6 mph 12 mph 90 % 0 in
06:27 44.1 °F 41.4 °F 29.9 in SW 7 mph 13 mph 90 % 0 in
06:32 44.1 °F 41.4 °F 29.9 in SSW 6 mph 13 mph 90 % 0 in
06:42 44.1 °F 41.5 °F 29.9 in WSW 6 mph 11 mph 91 % 0 in
06:47 44.1 °F 41.4 °F 29.9 in SW 12 mph 13 mph 90 % 0 in
06:52 44.1 °F 41.4 °F 29.9 in SW 8 mph 13 mph 90 % 0 in
06:57 44.1 °F 41.4 °F 29.9 in SW 8 mph 13 mph 90 % 0 in
07:02 44.1 °F 41.5 °F 29.9 in SSW 4 mph 13 mph 91 % 0 in
07:12 44.1 °F 41.5 °F 29.9 in SW 11 mph 12 mph 91 % 0 in
07:17 44.1 °F 41.4 °F 29.9 in SW 8 mph 12 mph 90 % 0 in
07:22 44.1 °F 41.4 °F 29.9 in SW 7 mph 15 mph 90 % 0 in
07:27 44.1 °F 41.4 °F 29.9 in WSW 12 mph 15 mph 90 % 0 in
07:32 44.1 °F 41 °F 29.9 in SSW 8 mph 15 mph 89 % 0 in
07:37 44.1 °F 41 °F 29.9 in WSW 8 mph 15 mph 89 % 0 in
07:42 44.1 °F 41 °F 29.9 in WSW 6 mph 14 mph 89 % 0 in
07:47 44.1 °F 41.4 °F 29.9 in SSW 9 mph 14 mph 90 % 0 in
07:52 44.1 °F 41.4 °F 29.9 in WSW 13 mph 15 mph 90 % 0 in
07:57 44.1 °F 41.4 °F 29.9 in SSW 6 mph 15 mph 90 % 0 in
08:02 44.1 °F 41.4 °F 29.9 in SSW 9 mph 15 mph 90 % 0 in
08:07 44.1 °F 41 °F 29.9 in WSW 5 mph 15 mph 89 % 0 in
08:12 44.1 °F 41 °F 29.9 in SW 6 mph 15 mph 89 % 0 in
08:17 44.1 °F 41 °F 29.9 in SW 9 mph 15 mph 89 % 0 in
08:22 44.1 °F 41 °F 29.9 in SW 9 mph 15 mph 89 % 0 in
08:27 44.1 °F 40.8 °F 29.9 in SW 9 mph 15 mph 88 % 0 in
08:32 44.2 °F 41 °F 29.9 in SSW 10 mph 15 mph 88 % 0 in
08:37 44.2 °F 41 °F 29.9 in SW 5 mph 15 mph 88 % 0 in
08:42 44.2 °F 41 °F 29.9 in WSW 7 mph 16 mph 88 % 0 in
08:47 44.4 °F 41.2 °F 29.9 in WSW 4 mph 16 mph 88 % 0 in
08:52 44.4 °F 41.2 °F 29.9 in SSW 10 mph 16 mph 88 % 0 in
08:57 44.4 °F 41.2 °F 29.9 in SW 13 mph 16 mph 88 % 0 in
09:02 44.4 °F 41.2 °F 29.9 in WSW 5 mph 14 mph 88 % 0 in
09:07 44.4 °F 41.2 °F 29.9 in SW 5 mph 14 mph 88 % 0 in
09:12 44.4 °F 41.2 °F 29.9 in SW 8 mph 15 mph 88 % 0 in
09:17 44.6 °F 41.5 °F 29.9 in WSW 5 mph 15 mph 89 % 0 in
09:22 44.6 °F 41.2 °F 29.9 in SW 16 mph 16 mph 88 % 0 in
09:32 44.6 °F 41.2 °F 29.9 in WSW 7 mph 17 mph 88 % 0 in
09:42 44.6 °F 41.2 °F 29.9 in West 2 mph 17 mph 88 % 0 in
09:47 44.4 °F 40.8 °F 29.9 in SW 13 mph 17 mph 87 % 0 in
09:52 44.4 °F 40.8 °F 29.9 in WSW 12 mph 17 mph 87 % 0 in
09:57 44.4 °F 40.8 °F 29.9 in WSW 7 mph 17 mph 87 % 0 in
10:02 44.8 °F 41.2 °F 29.9 in SW 11 mph 18 mph 87 % 0 in
10:07 44.8 °F 41.2 °F 29.9 in SW 16 mph 18 mph 87 % 0 in
10:12 45 °F 41 °F 29.9 in SSW 9 mph 18 mph 86 % 0 in
10:17 45 °F 41 °F 29.9 in SW 11 mph 18 mph 86 % 0 in
10:22 45 °F 41 °F 29.9 in SW 12 mph 19 mph 86 % 0 in
10:27 45 °F 40.6 °F 29.9 in WSW 8 mph 19 mph 85 % 0 in
10:32 45.1 °F 41.2 °F 29.9 in WSW 12 mph 24 mph 86 % 0 in
10:37 45.3 °F 41 °F 29.9 in SW 2 mph 24 mph 85 % 0 in
10:42 45.5 °F 41.5 °F 29.9 in WSW 10 mph 24 mph 86 % 0 in
10:47 45.7 °F 41.4 °F 29.9 in SSW 7 mph 24 mph 85 % 0 in
10:52 45.9 °F 41.4 °F 29.9 in SW 14 mph 20 mph 84 % 0 in
10:57 46 °F 41.7 °F 29.9 in WSW 8 mph 20 mph 85 % 0 in
11:02 46 °F 41.5 °F 29.9 in West 16 mph 21 mph 84 % 0 in
11:07 45.9 °F 41.5 °F 29.9 in SW 13 mph 21 mph 85 % 0 in
11:12 46 °F 41.7 °F 29.9 in SW 13 mph 22 mph 85 % 0 in
11:17 46 °F 41.7 °F 29.9 in West 5 mph 22 mph 85 % 0 in
11:22 45.9 °F 41.4 °F 29.9 in West 13 mph 22 mph 84 % 0 in
11:27 45.9 °F 41 °F 29.9 in West 8 mph 22 mph 83 % 0 in
11:37 46 °F 41.5 °F 29.9 in West 16 mph 23 mph 84 % 0 in
11:42 46 °F 41.5 °F 29.9 in West 21 mph 23 mph 84 % 0 in
11:47 45.9 °F 41.4 °F 29.9 in West 7 mph 23 mph 84 % 0 in
11:52 45.7 °F 41.2 °F 29.9 in WSW 8 mph 23 mph 84 % 0 in
11:57 45.7 °F 41.4 °F 29.9 in West 10 mph 21 mph 85 % 0 in
12:02 45.9 °F 41.5 °F 29.9 in WSW 10 mph 21 mph 85 % 0 in
12:07 45.9 °F 41.5 °F 29.9 in SW 11 mph 20 mph 85 % 0 in
12:12 45.9 °F 41.5 °F 29.9 in SW 8 mph 20 mph 85 % 0 in
12:17 46 °F 41.7 °F 29.9 in SW 5 mph 20 mph 85 % 0 in
12:22 46 °F 41.7 °F 29.9 in South 5 mph 24 mph 85 % 0 in
12:27 46.2 °F 41.9 °F 29.9 in SW 18 mph 24 mph 85 % 0 in
12:32 46.2 °F 41.7 °F 29.9 in SW 23 mph 24 mph 84 % 0 in
12:37 46.4 °F 41.9 °F 29.9 in WSW 10 mph 24 mph 84 % 0 in
12:42 46.6 °F 42.3 °F 29.9 in WSW 8 mph 26 mph 85 % 0 in
12:52 46.6 °F 42.3 °F 29.9 in WSW 11 mph 23 mph 85 % 0 in
13:02 46.6 °F 42.3 °F 29.9 in SW 10 mph 24 mph 85 % 0 in
13:07 46.8 °F 42.4 °F 29.9 in West 16 mph 23 mph 85 % 0 in
13:12 46.8 °F 42.4 °F 29.9 in WSW 14 mph 23 mph 85 % 0 in
13:17 46.8 °F 42.4 °F 29.9 in WSW 16 mph 22 mph 85 % 0 in
13:22 46.8 °F 42.4 °F 29.9 in SW 8 mph 22 mph 85 % 0 in
13:32 46.9 °F 43 °F 29.9 in SSW 11 mph 22 mph 86 % 0 in
13:37 46.9 °F 43 °F 29.9 in SSW 17 mph 21 mph 86 % 0 in
13:42 47.1 °F 43.2 °F 29.8 in WSW 10 mph 21 mph 86 % 0 in
13:47 47.3 °F 43.3 °F 29.8 in WSW 10 mph 22 mph 86 % 0 in
13:52 47.5 °F 43.2 °F 29.8 in WSW 15 mph 22 mph 85 % 0 in
13:57 47.7 °F 43.3 °F 29.8 in SW 12 mph 20 mph 85 % 0 in
14:02 47.7 °F 43.3 °F 29.8 in SSW 4 mph 20 mph 85 % 0 in
14:07 47.7 °F 43.3 °F 29.8 in WSW 15 mph 21 mph 85 % 0 in
14:12 47.7 °F 43.3 °F 29.8 in WSW 9 mph 21 mph 85 % 0 in
14:17 47.7 °F 43.7 °F 29.8 in West 9 mph 22 mph 86 % 0 in
14:22 47.7 °F 43.3 °F 29.8 in West 10 mph 22 mph 85 % 0 in
14:32 47.8 °F 43.9 °F 29.8 in West 9 mph 22 mph 86 % 0 in
14:42 47.8 °F 43.9 °F 29.8 in West 12 mph 21 mph 86 % 0 in
14:47 47.8 °F 43.9 °F 29.8 in WSW 13 mph 20 mph 86 % 0 in
14:52 48 °F 43.7 °F 29.8 in SW 10 mph 20 mph 85 % 0 in
14:57 48.2 °F 43.9 °F 29.8 in WSW 13 mph 20 mph 85 % 0 in
15:02 48.4 °F 44.1 °F 29.8 in SSW 11 mph 20 mph 85 % 0 in
15:07 48.4 °F 44.1 °F 29.8 in SW 17 mph 22 mph 85 % 0 in
15:12 48.4 °F 44.1 °F 29.8 in West 8 mph 22 mph 85 % 0 in
15:17 48.4 °F 44.4 °F 29.8 in WSW 15 mph 22 mph 86 % 0 in
15:22 48.4 °F 44.4 °F 29.8 in SW 10 mph 22 mph 86 % 0 in
15:27 48.4 °F 44.1 °F 29.8 in SW 10 mph 18 mph 85 % 0 in
15:32 48.6 °F 44.2 °F 29.8 in WSW 12 mph 18 mph 85 % 0 in
15:37 48.6 °F 44.2 °F 29.8 in SW 9 mph 22 mph 85 % 0 in
15:42 48.6 °F 44.2 °F 29.8 in SSW 11 mph 22 mph 85 % 0 in
15:47 48.6 °F 44.6 °F 29.8 in WSW 17 mph 23 mph 86 % 0 in
15:52 48.6 °F 44.6 °F 29.8 in SW 13 mph 23 mph 86 % 0 in
15:57 48.6 °F 44.6 °F 29.8 in SW 15 mph 30 mph 86 % 0 in
16:02 48.6 °F 44.6 °F 29.8 in WSW 11 mph 30 mph 86 % 0 in
16:07 48.6 °F 44.6 °F 29.8 in SW 13 mph 25 mph 86 % 0 in
16:12 48.4 °F 44.8 °F 29.8 in West 10 mph 25 mph 87 % 0 in
16:17 48.4 °F 44.8 °F 29.8 in West 9 mph 25 mph 87 % 0 in
16:22 48 °F 44.6 °F 29.8 in SW 16 mph 25 mph 88 % 0 in
16:32 47.7 °F 45 °F 29.8 in SW 13 mph 23 mph 90 % 0 in
16:42 47.1 °F 45 °F 29.8 in WSW 11 mph 26 mph 92 % 0 in
16:47 47.1 °F 45.1 °F 29.8 in SW 15 mph 22 mph 93 % 0 in
16:52 46.9 °F 45 °F 29.8 in SW 10 mph 22 mph 93 % 0 in
16:57 46.9 °F 45 °F 29.8 in WSW 15 mph 21 mph 93 % 0 in
17:02 46.9 °F 45 °F 29.8 in SW 11 mph 21 mph 93 % 0 in
17:07 46.9 °F 45 °F 29.8 in WSW 19 mph 22 mph 93 % 0 in
17:12 46.9 °F 45 °F 29.8 in SW 11 mph 22 mph 93 % 0 in
17:17 46.9 °F 45.3 °F 29.8 in SW 5 mph 24 mph 94 % 0 in
17:22 46.9 °F 45.3 °F 29.8 in SW 10 mph 24 mph 94 % 0 in
17:27 46.9 °F 45.3 °F 29.8 in WSW 7 mph 17 mph 94 % 0 in
17:32 46.9 °F 45.3 °F 29.8 in SSW 8 mph 17 mph 94 % 0 in
17:37 46.9 °F 45.3 °F 29.8 in WSW 13 mph 21 mph 94 % 0 in
17:42 46.9 °F 45.3 °F 29.8 in SSW 8 mph 21 mph 94 % 0 in
17:47 46.9 °F 45.3 °F 29.8 in SW 8 mph 19 mph 94 % 0 in
17:52 46.8 °F 45.1 °F 29.8 in SW 10 mph 19 mph 94 % 0 in
17:57 46.8 °F 45.1 °F 29.8 in SW 11 mph 20 mph 94 % 0 in
18:02 46.8 °F 45.1 °F 29.8 in SW 14 mph 20 mph 94 % 0 in
18:12 46.8 °F 45.3 °F 29.8 in WSW 6 mph 20 mph 95 % 0 in
18:17 46.8 °F 45.3 °F 29.8 in SW 8 mph 20 mph 95 % 0 in
18:22 46.8 °F 45.3 °F 29.8 in SW 7 mph 20 mph 95 % 0 in
18:32 46.8 °F 45.3 °F 29.8 in SW 6 mph 20 mph 95 % 0 in
18:37 46.8 °F 45.3 °F 29.8 in WSW 13 mph 20 mph 95 % 0 in
18:42 46.8 °F 45.3 °F 29.8 in WSW 7 mph 19 mph 95 % 0.01 in
18:52 46.8 °F 45.3 °F 29.8 in WNW 8 mph 16 mph 95 % 0.01 in
18:57 46.9 °F 45.5 °F 29.8 in SW 6 mph 18 mph 95 % 0.01 in
19:02 46.9 °F 45.5 °F 29.8 in SW 11 mph 18 mph 95 % 0.01 in
19:07 46.9 °F 45.5 °F 29.8 in West 5 mph 19 mph 95 % 0.02 in
19:12 46.9 °F 45.5 °F 29.8 in SW 4 mph 19 mph 95 % 0.02 in
19:17 47.1 °F 45.7 °F 29.8 in WSW 10 mph 20 mph 95 % 0.02 in
19:22 47.1 °F 45.7 °F 29.8 in SW 6 mph 20 mph 95 % 0.02 in
19:42 47.3 °F 45.9 °F 29.8 in WSW 5 mph 17 mph 95 % 0.01 in
19:52 47.5 °F 46 °F 29.8 in SW 7 mph 14 mph 95 % 0.01 in
19:57 47.7 °F 46.2 °F 29.8 in WSW 5 mph 13 mph 95 % 0.01 in
20:02 47.7 °F 46.2 °F 29.8 in SSW 4 mph 13 mph 95 % 0.01 in
20:07 47.7 °F 46.2 °F 29.8 in West 8 mph 15 mph 95 % 0 in
20:12 47.8 °F 46.4 °F 29.8 in WSW 6 mph 15 mph 95 % 0 in
20:17 47.8 °F 46.4 °F 29.8 in SW 11 mph 16 mph 95 % 0 in
20:22 47.8 °F 46.4 °F 29.8 in WSW 12 mph 16 mph 95 % 0 in
20:27 47.8 °F 46.4 °F 29.8 in West 4 mph 16 mph 95 % 0.01 in
20:32 48 °F 46.6 °F 29.9 in WNW 6 mph 16 mph 95 % 0.01 in
20:37 48 °F 46.6 °F 29.9 in WSW 14 mph 16 mph 95 % 0.06 in
20:42 48 °F 46.6 °F 29.9 in WNW 5 mph 16 mph 95 % 0.06 in
20:52 48.2 °F 46.6 °F 29.9 in West 5 mph 15 mph 94 % 0.09 in
20:57 48 °F 46.4 °F 29.9 in WNW 6 mph 14 mph 94 % 0.1 in
21:02 48 °F 46.4 °F 29.9 in West 4 mph 14 mph 94 % 0.1 in
21:07 47.8 °F 45.7 °F 29.9 in WNW 6 mph 13 mph 92 % 0.12 in
21:12 47.7 °F 45.7 °F 29.9 in NNE 2 mph 13 mph 93 % 0.12 in
21:17 47.5 °F 44.8 °F 29.9 in WNW 8 mph 13 mph 90 % 0.13 in
21:22 47.5 °F 45 °F 29.9 in WNW 7 mph 13 mph 91 % 0.13 in
21:32 47.7 °F 45 °F 29.9 in WNW 13 mph 13 mph 90 % 0.13 in
21:37 47.7 °F 45 °F 29.9 in West 6 mph 16 mph 90 % 0.06 in
21:42 47.7 °F 45 °F 29.9 in WNW 5 mph 16 mph 90 % 0.06 in
21:47 47.5 °F 44.8 °F 29.9 in WNW 4 mph 15 mph 90 % 0.05 in
21:57 47.8 °F 44.2 °F 29.9 in WNW 5 mph 10 mph 87 % 0.05 in
22:07 47.7 °F 44.1 °F 29.9 in WNW 4 mph 10 mph 87 % 0.02 in
22:12 47.3 °F 43.9 °F 29.9 in West 1 mph 10 mph 88 % 0.02 in
22:22 47.1 °F 44.4 °F 29.9 in WNW 2 mph 8 mph 90 % 0.02 in
22:27 46.9 °F 44.2 °F 29.9 in WSW 2 mph 5 mph 90 % 0.01 in
22:32 46.9 °F 44.2 °F 29.9 in West 1 mph 5 mph 90 % 0.01 in
22:37 47.1 °F 44.1 °F 29.9 in WNW 6 mph 10 mph 89 % 0 in
22:42 47.1 °F 43.7 °F 29.9 in West 4 mph 10 mph 88 % 0 in
22:47 47.1 °F 43.7 °F 29.9 in WNW 4 mph 10 mph 88 % 0 in
22:52 46.9 °F 43.3 °F 29.9 in WNW 2 mph 10 mph 87 % 0 in
22:57 46.9 °F 43.3 °F 29.9 in WSW 6 mph 8 mph 87 % 0 in
23:02 46.9 °F 43 °F 29.9 in West 6 mph 8 mph 86 % 0 in
23:07 46.9 °F 42.4 °F 29.9 in WNW 4 mph 11 mph 84 % 0 in
23:12 46.8 °F 42.3 °F 29.9 in West 5 mph 11 mph 84 % 0 in
23:17 46.6 °F 42.1 °F 29.9 in WNW 5 mph 11 mph 84 % 0 in
23:22 46.6 °F 42.3 °F 29.9 in West 1 mph 11 mph 85 % 0 in
23:27 46.4 °F 42.1 °F 29.9 in West 6 mph 8 mph 85 % 0 in
23:32 46.2 °F 40.5 °F 29.9 in West 11 mph 11 mph 80 % 0 in
23:42 46 °F 40.3 °F 29.9 in NW 7 mph 18 mph 80 % 0 in
23:47 45.7 °F 39.9 °F 29.9 in West 6 mph 18 mph 80 % 0 in
23:52 45.5 °F 40.1 °F 29.9 in WNW 4 mph 18 mph 81 % 0 in
23:57 45.3 °F 39.9 °F 29.9 in WSW 4 mph 11 mph 81 % 0 in
Meteo18
Compliments of Weather Underground - 4 mb

Script developed by  Jim McMurry - jmcmurry@mwt.net Adapted for the template by  Wim van der Kuil - Leuven-Template.eu

You find our weather info also at:

European Weather Network

Weather Underground

Equipment we use:

Weather-station
Davis Vue

Weather-program
Meteohub

Weather-server
Raspberry PI 2 B+

Provider
1 and 1

Davis Vue

Meteohub

Raspberry PI 2 B+

1 and 1